Location: River House Observatory
(37.8577°N, 76.3548°W)
Time: 13:46:21
(UTC-05:00)

NOSS 3-1 (C) - Visible Passes

Search period start: 04 March 2015 00:00
Search period end: 14 March 2015 01:00
Orbit: 882 x 1327 km, 63.4° (Epoch: 02 March)

Date Brightness Start Highest point End Pass type
(mag) Time Alt. Az. Time Alt. Az. Time Alt. Az.
04 Mar 5.9 21:39:28 10° N 21:41:47 17° N 21:41:47 17° N visible
05 Mar 5.8 20:54:52 10° N 20:58:02 15° NNE 20:58:02 15° NNE visible
05 Mar 6.1 22:44:12 10° NNW 22:45:27 16° NNW 22:45:27 16° NNW visible
06 Mar 5.9 20:10:48 10° N 20:12:36 11° NNE 20:14:19 10° NE visible
06 Mar 5.8 21:59:12 10° NNW 22:01:43 21° N 22:01:43 21° N visible
07 Mar 5.5 21:14:20 10° NNW 21:18:01 22° NNE 21:18:01 22° NNE visible
07 Mar 6.2 23:04:26 10° NW 23:05:25 15° NW 23:05:25 15° NW visible
08 Mar 5.5 21:29:36 10° N 21:34:20 18° NNE 21:34:20 18° NNE visible
08 Mar 5.7 23:19:14 10° NNW 23:21:45 23° NNW 23:21:45 23° NNW visible
09 Mar 5.8 20:45:08 10° N 20:48:14 13° NNE 20:50:40 12° NE visible
09 Mar 5.2 22:34:10 10° NNW 22:38:05 30° N 22:38:05 30° N visible
10 Mar 6.4 00:25:08 10° NW 00:25:30 12° NW 00:25:30 12° NW visible
10 Mar 5.1 21:49:14 10° NNW 21:54:28 29° NNE 21:54:28 29° NNE visible
10 Mar 5.8 23:39:37 10° NW 23:41:53 22° NW 23:41:53 22° NW visible
11 Mar 5.3 21:04:25 10° N 21:09:50 22° NE 21:10:53 21° NE visible
11 Mar 5.2 22:54:19 10° NNW 22:58:18 36° NNW 22:58:18 36° NNW visible
12 Mar 5.6 20:19:47 10° N 20:23:50 16° NNE 20:27:19 12° ENE visible
12 Mar 4.6 22:09:10 10° NNW 22:14:44 46° N 22:14:44 46° N visible
13 Mar 6.1 00:00:34 10° NW 00:02:09 16° WNW 00:02:09 16° WNW visible
13 Mar 5.8 19:35:37 10° N 19:37:42 11° NNE 19:40:06 10° NE visible
13 Mar 4.6 21:24:10 10° NNW 21:31:00 38° NE 21:31:14 38° NE visible
13 Mar 5.4 23:14:51 10° NW 23:18:39 31° WNW 23:18:39 31° WNW visible
